CW1967 Weather Reports


time (UTC)temp
C
wind
direction
speed
KPH
gust
KPH
rain 1hr
cm
rain 24hr
cm
rain mn
cm
humidity
%
barometer
mb
20260906000041 21 49 6.4 12.9 0.00 0.00 0.00 69 1023.2
20260906000026 16 0.0 0.0 0.00 1.19 0.00 78 1028.3
20260905235704 23 228 0.0 1.6 0.00 0.41 0.23 93 1012.3
20260905235645 -17 323 0.0 0.0 0.00 0.00 0.00 1011.8
20260905235219 23 243 1.6 3.2 0.00 0.41 0.23 93 1012.3
20260905235141 -17 322 0.0 0.0 0.00 0.00 0.00 1011.7
20260905235020 16 0.0 0.0 0.00 1.19 0.00 77 1028.2
20260905234703 23 236 1.6 3.2 0.03 0.41 0.23 93 1012.5
20260905234636 -17 5 0.0 0.0 0.00 0.00 0.00 1011.8
20260905234539 21 49 8.0 14.5 0.00 0.00 0.00 69 1022.8
20260905234204 23 246 1.6 3.2 0.03 0.41 0.23 92 1012.4
20260905234131 -17 359 1.6 1.6 0.00 0.00 0.00 1011.7
20260905234044 16 0.0 0.0 0.00 1.19 0.00 77 1028.2
20260905233704 23 154 0.0 3.2 0.03 0.41 0.23 92 1012.5
20260905233626 -17 344 0.0 0.0 0.00 0.00 0.00 1011.5
20260905233203 23 237 1.6 3.2 0.03 0.41 0.23 92 1012.6
20260905233120 -17 275 1.6 1.6 0.00 0.00 0.00 1011.8
20260905233113 16 0.0 0.0 0.00 1.19 0.00 77 1028.1
20260905233038 21 50 9.7 17.7 0.00 0.00 0.00 69 1022.9
20260905232704 24 197 1.6 3.2 0.03 0.41 0.23 91 1012.8
20260905232616 -17 343 0.0 0.0 0.00 0.00 0.00 1011.7
20260905232204 24 237 1.6 3.2 0.03 0.41 0.23 91 1012.8
20260905232111 -17 336 0.0 0.0 0.00 0.00 0.00 1011.8
20260905232026 17 0.0 0.0 0.00 1.19 0.00 77 1028.0
20260905231703 24 192 1.6 3.2 0.03 0.41 0.23 91 1012.8
20260905231606 -17 353 0.0 0.0 0.00 0.00 0.00 1011.6
20260905231537 21 48 9.7 16.1 0.00 0.00 0.00 69 1023.1
20260905231203 25 226 0.0 3.2 0.03 0.41 0.23 90 1013.0
20260905231102 -17 341 0.0 0.0 0.00 0.00 0.00 1011.7
20260905231020 17 0.0 0.0 0.00 1.19 0.00 76 1027.9
20260905230704 25 221 1.6 3.2 0.03 0.41 0.23 89 1012.8
20260905230602 -17 351 0.0 0.0 0.00 0.00 0.00 1011.8
20260905230203 25 211 0.0 3.2 0.03 0.41 0.23 88 1012.7
20260905230100 -17 349 0.0 0.0 0.00 0.00 0.00 1011.7
20260905230044 17 0.0 3.2 0.00 1.19 0.00 76 1027.8
20260905230034 21 36 9.7 16.1 0.00 0.00 0.00 70 1023.0
20260905225704 25 236 0.0 4.8 0.03 0.41 0.23 87 1012.8
20260905225554 -17 356 0.0 1.6 0.00 0.00 0.00 1011.6
20260905225203 25 223 4.8 8.0 0.03 0.38 0.20 85 1012.8
20260905225049 -17 16 0.0 0.0 0.00 0.00 0.00 1011.7
20260905225032 17 0.0 3.2 0.00 1.19 0.00 75 1027.8
20260905224605 22 47 8.0 16.1 0.00 0.00 0.00 72 1023.0
20260905224544 -17 13 0.0 0.0 0.00 0.00 0.00 1011.7
20260905224204 25 260 1.6 3.2 0.00 0.38 0.18 84 1012.8
20260905224043 -17 350 0.0 0.0 0.00 0.00 0.00 1011.7
20260905224026 17 0.0 0.0 0.00 1.19 0.00 75 1027.7
20260905223704 25 283 1.6 4.8 0.00 0.38 0.18 84 1012.6
20260905223541 -17 307 0.0 0.0 0.00 0.00 0.00 1011.9
20260905223204 26 264 0.0 3.2 0.00 0.38 0.18 86 1012.6
20260905223036 -17 349 0.0 0.0 0.00 0.00 0.00 1011.9
20260905223028 22 40 9.7 14.5 0.00 0.00 0.00 72 1023.0
20260905223020 18 0.0 0.0 0.00 1.19 0.00 74 1027.5
20260905222703 26 238 1.6 3.2 0.00 0.38 0.18 86 1012.2
20260905222531 -17 15 0.0 0.0 0.00 0.00 0.00 1012.0
20260905222203 26 140 1.6 3.2 0.00 0.38 0.18 85 1012.4
20260905222044 18 0.0 0.0 0.00 1.19 0.00 73 1027.6
20260905222026 -17 284 0.0 1.6 0.00 0.00 0.00 1012.1
20260905221703 26 290 3.2 4.8 0.00 0.38 0.18 84 1012.4
20260905221528 22 46 8.0 16.1 0.00 0.00 0.00 71 1023.2
20260905221523 -17 10 0.0 0.0 0.00 0.00 0.00 1012.1
20260905221203 26 310 1.6 3.2 0.00 0.38 0.18 84 1012.2
20260905221053 18 0.0 0.0 0.00 1.19 0.00 73 1027.6
20260905221018 -17 344 0.0 0.0 0.00 0.00 0.00 1012.2
20260905220703 26 306 1.6 4.8 0.00 0.38 0.18 84 1012.3
20260905220514 -17 325 1.6 1.6 0.00 0.00 0.00 1012.1
20260905220204 26 344 1.6 8.0 0.00 0.38 0.18 84 1012.4
20260905220026 18 0.0 3.2 0.00 1.19 0.00 71 1027.5
20260905220023 22 53 12.9 22.5 0.00 0.00 0.00 72 1022.8
20260905220010 -17 341 0.0 1.6 0.00 0.00 0.00 1012.2
20260905215703 26 297 1.6 3.2 0.00 0.38 0.18 83 1012.3
20260905215504 -17 323 1.6 1.6 0.00 0.00 0.00 1012.0
20260905215204 26 319 0.0 3.2 0.00 0.38 0.18 83 1012.5
20260905215020 19 0 0.0 3.2 0.00 1.19 1.19 70 1027.4
20260905215000 -17 282 1.6 3.2 0.00 0.00 0.00 1012.1
20260905214704 26 294 1.6 4.8 0.00 0.38 0.18 83 1012.5
20260905214522 22 51 9.7 16.1 0.00 0.00 0.00 73 1022.8
20260905214455 -17 258 1.6 3.2 0.00 0.00 0.00 1012.2
20260905214203 26 277 1.6 3.2 0.00 0.38 0.18 82 1012.5
20260905214044 19 0.0 0.0 0.00 1.19 1.19 68 1027.1
20260905213950 -17 347 1.6 1.6 0.00 0.00 0.00 1012.0
20260905213703 27 321 3.2 3.2 0.00 0.38 0.18 82 1012.4
20260905213446 -17 338 3.2 3.2 0.00 0.00 0.00 1012.2
20260905213204 27 299 1.6 3.2 0.00 0.38 0.18 81 1012.2
20260905213052 20 248 0.0 3.2 0.00 1.19 1.19 67 1027.0
20260905213022 22 30 9.7 16.1 0.00 0.00 0.00 74 1022.9
20260905212941 -17 322 1.6 1.6 0.00 0.00 0.00 1012.3
20260905212703 27 4 3.2 4.8 0.00 0.38 0.18 80 1012.2
20260905212436 -17 354 1.6 1.6 0.00 0.00 0.00 1012.2
20260905212203 27 47 4.8 11.3 0.00 0.38 0.18 80 1012.4
20260905212026 20 256 0.0 3.2 0.00 1.19 1.19 67 1026.8
20260905211935 -17 223 4.8 4.8 0.00 0.00 0.00 1012.4
20260905211703 27 257 3.2 8.0 0.00 0.38 0.18 80 1012.1
20260905211538 21 44 9.7 14.5 0.00 0.00 0.00 79 1022.9
20260905211430 -17 253 1.6 1.6 0.00 0.00 0.00 1012.5
20260905211204 27 356 3.2 8.0 0.00 0.38 0.18 79 1012.0
20260905211020 20 270 0.0 3.2 0.00 1.19 1.19 67 1026.7
20260905210921 -17 174 3.2 3.2 0.00 0.00 0.00 1012.3
20260905210703 27 225 1.6 4.8 0.00 0.38 0.18 81 1012.0
20260905210421 -17 306 1.6 1.6 0.00 0.00 0.00 1012.4
20260905210204 27 228 3.2 4.8 0.00 0.38 0.18 81 1012.1
20260905210104 20 243 0.0 3.2 0.00 1.19 1.19 66 1026.6
20260905210036 21 39 4.8 8.0 0.00 0.00 0.00 82 1023.0
20260905205920 -17 289 4.8 4.8 0.00 0.00 0.00 1012.4
20260905205415 -17 120 3.2 3.2 0.00 0.00 0.00 1012.4
20260905205203 27 259 3.2 8.0 0.00 0.38 0.18 80 1012.4
20260905205032 20 256 0.0 3.2 0.00 1.19 1.19 66 1026.5
20260905204914 -17 301 1.6 1.6 0.00 0.00 0.00 1012.3
20260905204522 21 32 3.2 9.7 0.00 0.00 0.00 82 1023.0
20260905204410 -17 28 0.0 0.0 0.00 0.00 0.00 1012.1
20260905204203 28 19 1.6 4.8 0.00 0.38 0.18 79 1012.1
20260905204026 20 237 0.0 6.4 0.00 1.19 1.19 66 1026.5
20260905203909 -17 340 0.0 1.6 0.00 0.00 0.00 1012.3
20260905203405 -17 328 1.6 1.6 0.00 0.00 0.00 1012.3
20260905203203 27 243 1.6 8.0 0.00 0.38 0.18 83 1012.3
20260905203021 21 23 6.4 9.7 0.00 0.00 0.00 82 1022.8
20260905202900 -17 173 3.2 4.8 0.00 0.00 0.00 1012.0
20260905202704 27 78 4.8 8.0 0.00 0.38 0.18 83 1012.0
20260905202355 -17 158 0.0 1.6 0.00 0.00 0.00 1012.0
20260905202044 20 248 0.0 3.2 0.00 1.19 1.19 65 1026.5
20260905201850 -17 228 1.6 3.2 0.00 0.00 0.00 1012.3
20260905201703 27 215 1.6 8.0 0.00 0.38 0.18 85 1012.3
20260905201522 21 360 4.8 12.9 0.00 0.00 0.00 82 1022.8
20260905201345 -17 10 1.6 3.2 0.00 0.00 0.00 1012.3
20260905201203 26 337 3.2 8.0 0.00 0.38 0.18 87 1012.6
20260905201052 20 255 0.0 3.2 0.00 1.19 1.19 64 1026.4
20260905200840 -17 242 3.2 3.2 0.00 0.00 0.00 1012.4
20260905200704 25 64 1.6 8.0 0.00 0.38 0.18 87 1012.2
20260905200336 -17 167 6.4 8.0 0.00 0.00 0.00 1012.3
20260905200203 25 100 6.4 11.3 0.00 0.38 0.18 86 1012.2
20260905200026 21 1 3.2 9.7 0.00 0.00 0.00 82 1022.7
20260905195833 -17 162 1.6 1.6 0.00 0.00 0.00 1012.7
20260905195704 26 99 3.2 8.0 0.00 0.38 0.18 86 1012.4
20260905195328 -17 153 4.8 4.8 0.00 0.00 0.00 1012.9
20260905195020 20 259 0.0 3.2 0.00 1.19 1.19 65 1026.2
20260905194824 -17 191 4.8 4.8 0.00 0.00 0.00 1012.9
20260905194520 21 355 6.4 12.9 0.00 0.00 0.00 83 1022.6
20260905194319 -17 317 4.8 4.8 0.00 0.00 0.00 1012.9
20260905194044 20 270 0.0 3.2 0.00 1.19 1.19 64 1026.2
20260905193818 -17 311 4.8 8.0 0.00 0.00 0.00 1013.1
20260905193313 -17 319 1.6 1.6 0.00 0.00 0.00 1013.0
20260905193052 20 0.0 0.0 0.00 1.19 1.19 64 1026.1
20260905193019 21 27 4.8 9.7 0.00 0.00 0.00 83 1022.6
20260905192809 -17 233 3.2 3.2 0.00 0.00 0.00 1013.2
20260905192704 25 292 3.2 4.8 0.18 0.38 0.18 88 1013.1
20260905192306 -17 340 0.0 1.6 0.00 0.00 0.00 1013.3
20260905192204 25 349 3.2 8.0 0.18 0.38 0.18 87 1013.1
20260905192026 20 0.0 0.0 0.00 1.19 1.19 63 1026.1
20260905191804 -17 295 0.0 1.6 0.00 0.00 0.00 1013.4
20260905191704 25 12 4.8 9.7 0.18 0.38 0.18 86 1013.2
20260905191519 21 11 3.2 12.9 0.00 0.00 0.00 83 1022.6
20260905191302 -17 255 1.6 1.6 0.00 0.00 0.00 1013.4
20260905191204 26 342 3.2 9.7 0.18 0.36 0.18 87 1013.5
20260905191020 20 0.0 0.0 0.00 1.19 1.19 62 1025.9
20260905190801 -17 354 0.0 0.0 0.00 0.00 0.00 1013.3
20260905190704 26 301 3.2 8.0 0.18 0.36 0.18 87 1013.8
20260905190255 -17 3 0.0 0.0 0.00 0.00 0.00 1013.2
20260905190203 26 307 3.2 8.0 0.18 0.36 0.18 87 1013.6
20260905190044 21 0.0 3.2 0.00 1.19 1.19 61 1025.9
20260905190018 21 11 4.8 16.1 0.00 0.00 0.00 82 1022.5
20260905185754 -17 290 1.6 1.6 0.00 0.00 0.00 1013.2
20260905185704 26 263 1.6 4.8 0.18 0.36 0.18 86 1013.5
20260905185249 -17 331 1.6 1.6 0.00 0.00 0.00 1013.3
20260905185203 27 214 1.6 3.2 0.15 0.36 0.18 83 1013.4
20260905185053 21 0.0 3.2 0.00 1.19 1.19 60 1025.7
20260905184748 -17 14 1.6 1.6 0.00 0.00 0.00 1013.6
20260905184704 27 194 1.6 3.2 0.15 0.33 0.15 82 1013.6
20260905184526 22 6 4.8 16.1 0.00 0.00 0.00 81 1022.6
20260905184242 -17 158 4.8 4.8 0.00 0.00 0.00 1013.6
20260905184204 27 35 1.6 3.2 0.13 0.33 0.15 81 1013.5
20260905184026 21 248 0.0 3.2 0.00 1.19 1.19 59 1025.6
20260905183740 -17 337 1.6 1.6 0.00 0.00 0.00 1013.7
20260905183703 28 344 0.0 4.8 0.13 0.30 0.13 78 1013.5
20260905183236 -17 358 1.6 1.6 0.00 0.00 0.00 1013.6
20260905183203 30 41 4.8 11.3 0.05 0.25 0.08 70 1013.5
20260905183020 21 248 0.0 3.2 0.00 1.19 1.19 58 1025.5
20260905183017 22 334 6.4 14.5 0.00 0.00 0.00 80 1022.8
20260905182731 -17 82 1.6 3.2 0.00 0.00 0.00 1013.6
20260905182704 32 94 3.2 4.8 0.00 0.18 0.00 60 1013.3
20260905182230 -17 322 1.6 3.2 0.00 0.00 0.00 1013.7
20260905182204 31 249 3.2 8.0 0.00 0.18 0.00 62 1013.4
20260905182044 21 248 0.0 3.2 0.00 1.19 1.19 57 1025.4
20260905181726 -17 46 1.6 3.2 0.00 0.00 0.00 1013.6
20260905181703 31 87 3.2 11.3 0.00 0.18 0.00 62 1013.3
20260905181518 22 359 8.0 14.5 0.00 0.00 0.00 79 1022.8
20260905181224 -17 36 1.6 1.6 0.00 0.00 0.00 1013.8
20260905181203 32 39 4.8 11.3 0.00 0.18 0.00 60 1013.1
20260905181033 22 270 0.0 3.2 0.00 1.19 1.19 56 1025.2
20260905180719 -17 16 3.2 3.2 0.00 0.00 0.00 1013.9
20260905180704 31 188 3.2 9.7 0.00 0.18 0.00 60 1013.2
20260905180214 -17 16 1.6 3.2 0.00 0.00 0.00 1014.0
20260905180203 32 94 8.0 12.9 0.00 0.18 0.00 60 1013.4
20260905180046 22 248 0.0 3.2 0.00 1.19 1.19 55 1025.2
20260905180015 23 311 11.3 17.7 0.00 0.00 0.00 77 1022.9
20260905175709 -17 49 1.6 1.6 0.00 0.00 0.00 1014.1
20260905175204 32 126 4.8 9.7 0.00 0.18 0.00 57 1013.1
20260905175040 22 0.0 3.2 0.00 1.19 1.19 56 1025.0
20260905174703 32 23 4.8 9.7 0.00 0.18 0.00 59 1013.2
20260905174659 -17 52 0.0 1.6 0.00 0.00 0.00 1014.1
20260905174516 23 324 6.4 12.9 0.00 0.00 0.00 77 1023.0
20260905174204 31 47 4.8 12.9 0.00 0.18 0.00 59 1013.4
20260905174155 -17 356 0.0 0.0 0.00 0.00 0.00 1014.2
20260905174044 22 225 0.0 3.2 0.00 1.19 1.19 55 1024.9
20260905173703 32 297 3.2 12.9 0.00 0.18 0.00 59 1013.4
20260905173650 -17 98 1.6 3.2 0.00 0.00 0.00 1014.2
20260905173204 32 209 4.8 11.3 0.00 0.18 0.00 59 1013.4
20260905173145 -17 50 1.6 1.6 0.00 0.00 0.00 1014.0
20260905173032 22 68 0.0 3.2 0.00 1.19 1.19 55 1024.7
20260905173014 24 296 9.7 14.5 0.00 0.00 0.00 75 1023.0
20260905172703 31 39 3.2 11.3 0.00 0.18 0.00 60 1013.8
20260905172645 -17 15 0.0 1.6 0.00 0.00 0.00 1014.0
20260905172203 31 36 6.4 16.1 0.00 0.18 0.00 60 1013.7
20260905172139 -17 46 0.0 1.6 0.00 0.00 0.00 1014.0
20260905172026 23 248 0.0 3.2 0.00 1.19 1.19 54 1024.6
20260905171703 31 28 4.8 11.3 0.00 0.18 0.00 59 1013.6
20260905171636 -17 76 0.0 1.6 0.00 0.00 0.00 1014.3
20260905171514 25 304 6.4 14.5 0.00 0.00 0.00 71 1022.9
20260905171204 32 37 3.2 9.7 0.00 0.18 0.00 58 1013.7
20260905171131 -17 2 0.0 0.0 0.00 0.00 0.00 1014.3
20260905171040 23 248 0.0 3.2 0.00 1.19 1.19 53 1024.6
20260905170703 31 78 3.2 8.0 0.00 0.18 0.00 61 1013.6
20260905170628 -17 14 0.0 1.6 0.00 0.00 0.00 1014.3
20260905170204 31 73 3.2 8.0 0.00 0.18 0.00 59 1013.6
20260905170123 -17 352 0.0 0.0 0.00 0.00 0.00 1014.4
20260905170044 23 270 0.0 3.2 0.00 1.19 1.19 53 1024.5
20260905170013 26 311 8.0 14.5 0.00 0.00 0.00 66 1022.9
20260905165704 32 116 4.8 12.9 0.00 0.18 0.00 59 1013.8
20260905165623 -17 336 0.0 1.6 0.00 0.00 0.00 1014.4
20260905165203 32 223 3.2 8.0 0.00 0.18 0.00 59 1013.7
20260905165118 -17 258 1.6 1.6 0.00 0.00 0.00 1014.2
20260905165032 23 249 1.6 6.4 0.00 1.19 1.19 52 1024.3
20260905164703 31 51 4.8 9.7 0.00 0.18 0.00 60 1013.7
20260905164613 -17 319 0.0 1.6 0.00 0.00 0.00 1014.3
20260905164520 26 338 6.4 14.5 0.00 0.00 0.00 66 1022.7
20260905164112 -17 346 1.6 1.6 0.00 0.00 0.00 1014.4
20260905164026 24 136 1.6 6.4 0.00 1.19 1.19 52 1024.3
20260905163704 31 245 3.2 8.0 0.00 0.18 0.00 60 1013.6
20260905163609 -17 312 0.0 1.6 0.00 0.00 0.00 1014.5
20260905163204 31 266 3.2 8.0 0.00 0.18 0.00 60 1013.9
20260905163105 -17 315 0.0 0.0 0.00 0.00 0.00 1014.2
20260905163020 24 236 1.6 3.2 0.00 1.19 1.19 51 1024.1
20260905163013 27 334 8.0 17.7 0.00 0.00 0.00 64 1022.7
20260905162703 31 28 4.8 11.3 0.00 0.18 0.00 63 1013.8
20260905162601 -17 329 0.0 1.6 0.00 0.00 0.00 1014.5
20260905162204 31 244 3.2 11.3 0.00 0.18 0.00 63 1013.7
20260905162103 24 284 1.6 6.4 0.00 1.19 1.19 50 1024.1
20260905162100 -17 342 0.0 1.6 0.00 0.00 0.00 1014.5
20260905161704 32 270 3.2 9.7 0.00 0.18 0.00 61 1014.1
20260905161555 -17 337 0.0 1.6 0.00 0.00 0.00 1014.5
20260905161512 27 313 11.3 16.1 0.00 0.00 0.00 65 1022.8
20260905161053 -17 186 1.6 1.6 0.00 0.00 0.00 1014.4
20260905160552 -17 117 0.0 1.6 0.00 0.00 0.00 1014.6
20260905160051 -17 12 1.6 1.6 0.00 0.00 0.00 1014.7
20260905160026 25 19 0.0 3.2 0.00 1.19 1.19 48 1024.1
20260905160014 28 352 6.4 14.5 0.00 0.00 0.00 62 1022.9
20260905155703 31 310 1.6 9.7 0.00 0.18 0.00 64 1014.2
20260905155546 -17 357 0.0 0.0 0.00 0.00 0.00 1014.6
20260905155203 31 351 4.8 11.3 0.00 0.18 0.00 63 1014.2
20260905155044 -17 8 1.6 1.6 0.00 0.00 0.00 1014.7
20260905155020 24 113 0.0 3.2 0.00 1.19 1.19 48 1024.1
20260905154539 -17 352 1.6 3.2 0.00 0.00 0.00 1014.6
20260905154511 28 7 8.0 16.1 0.00 0.00 0.00 54 1023.0
20260905154044 25 257 3.2 6.4 0.00 1.19 1.19 47 1023.9
20260905154035 -17 58 0.0 1.6 0.00 0.00 0.00 1014.7
20260905153704 31 21 6.4 11.3 0.00 0.18 0.00 62 1014.0
20260905153531 -17 3 1.6 1.6 0.00 0.00 0.00 1014.4
20260905153203 31 251 3.2 9.7 0.00 0.18 0.00 63 1014.0
20260905153032 25 281 1.6 11.3 0.00 1.19 1.19 50 1023.8
20260905153016 28 30 8.0 14.5 0.00 0.00 0.00 55 1023.1
20260905152704 31 3 4.8 9.7 0.00 0.18 0.00 64 1014.3
20260905152526 -17 33 0.0 1.6 0.00 0.00 0.00 1014.7
20260905152204 31 67 4.8 8.0 0.00 0.18 0.00 65 1014.3
20260905152026 26 239 1.6 6.4 0.00 1.19 1.19 48 1023.7
20260905152021 -17 356 0.0 0.0 0.00 0.00 0.00 1014.5
20260905151703 30 271 3.2 12.9 0.00 0.18 0.00 65 1014.2
20260905151516 28 18 9.7 17.7 0.00 0.00 0.00 54 1023.3
20260905151204 30 42 4.8 12.9 0.00 0.18 0.00 64 1014.1
20260905151020 26 264 1.6 6.4 0.00 1.19 1.19 48 1023.8
20260905151011 -17 279 0.0 0.0 0.00 0.00 0.00 1014.8
20260905150703 30 39 4.8 20.9 0.00 0.18 0.00 64 1014.0
20260905150506 -17 277 1.6 1.6 0.00 0.00 0.00 1014.5
20260905150204 30 18 6.4 14.5 0.00 0.18 0.00 65 1014.1
20260905150044 26 245 3.2 17.7 0.00 1.19 1.19 49 1023.8
20260905150004 -17 13 0.0 0.0 0.00 0.00 0.00 1014.6
20260905150002 28 5 4.8 16.1 0.00 0.00 0.00 55 1023.6
20260905145703 30 61 4.8 12.9 0.00 0.18 0.00 66 1014.1
20260905145458 -17 57 0.0 1.6 0.00 0.00 0.00 1014.6
20260905145203 30 22 8.0 11.3 0.00 0.18 0.00 66 1014.1
20260905145033 26 215 1.6 12.9 0.00 1.19 1.19 49 1023.8
20260905144957 -17 341 1.6 1.6 0.00 0.00 0.00 1014.4
20260905144704 31 314 3.2 9.7 0.00 0.18 0.00 65 1014.0
20260905144559 28 53 9.7 16.1 0.00 0.00 0.00 56 1023.6
20260905144452 -17 358 0.0 1.6 0.00 0.00 0.00 1014.6
20260905144204 30 20 3.2 11.3 0.00 0.18 0.00 65 1013.9
20260905144106 26 248 1.6 11.3 0.00 1.19 1.19 48 1023.9
20260905143951 -17 322 1.6 1.6 0.00 0.00 0.00 1014.5
20260905143704 30 69 4.8 9.7 0.00 0.18 0.00 66 1013.8
20260905143450 -17 260 4.8 4.8 0.00 0.00 0.00 1014.3
20260905143103 28 28 9.7 17.7 0.00 0.00 0.00 56 1023.7
20260905143020 26 265 1.6 9.7 0.00 1.19 1.19 49 1023.9
20260905142945 -17 0.0 0.0 0.00 0.00 0.00 1014.5
20260905142703 30 64 4.8 9.7 0.00 0.18 0.00 67 1013.7
20260905142444 -17 0.0 0.0 0.00 0.00 0.00 1014.7
20260905142203 30 41 3.2 9.7 0.00 0.18 0.00 68 1013.7
20260905142104 26 227 1.6 6.4 0.00 1.19 1.19 49 1023.9
20260905141940 -17 0.0 0.0 0.00 0.00 0.00 1014.5
20260905141703 30 36 1.6 4.8 0.00 0.18 0.00 67 1013.6
20260905141558 28 43 11.3 17.7 0.00 0.00 0.00 57 1023.9
20260905141434 -17 0.0 0.0 0.00 0.00 0.00 1014.5
20260905141204 29 296 4.8 8.0 0.00 0.18 0.00 69 1013.7
20260905141032 26 223 1.6 11.3 0.00 1.19 1.19 50 1023.9
20260905140931 -17 0.0 0.0 0.00 0.00 0.00 1014.4
20260905140703 29 277 3.2 11.3 0.00 0.18 0.00 69 1013.4
20260905140426 -17 0.0 0.0 0.00 0.00 0.00 1014.5
20260905140204 30 84 3.2 8.0 0.00 0.18 0.00 68 1013.7
20260905140055 28 51 9.7 19.3 0.00 0.00 0.00 57 1024.0
20260905140026 25 258 1.6 11.3 0.00 1.19 1.19 53 1024.1
20260905135924 -17 0.0 0.0 0.00 0.00 0.00 1014.4
20260905135703 30 35 3.2 8.0 0.00 0.18 0.00 68 1013.5
20260905135419 -17 0.0 0.0 0.00 0.00 0.00 1014.4
20260905135203 30 76 3.2 8.0 0.00 0.18 0.00 68 1013.4
20260905135020 25 318 1.6 6.4 0.00 1.19 1.19 53 1024.1
20260905134915 -17 0.0 0.0 0.00 0.00 0.00 1014.4
20260905134704 30 70 3.2 4.8 0.00 0.18 0.00 67 1013.3
20260905134557 28 42 16.1 19.3 0.00 0.00 0.00 56 1024.1
20260905134409 -17 0.0 0.0 0.00 0.00 0.00 1014.3
20260905134203 30 275 1.6 8.0 0.00 0.18 0.00 68 1013.3
20260905134044 25 262 3.2 12.9 0.00 1.19 1.19 53 1024.2
20260905133903 -17 0.0 0.0 0.00 0.00 0.00 1014.2
20260905133358 -17 0.0 0.0 0.00 0.00 0.00 1014.3
20260905133203 29 43 1.6 8.0 0.00 0.18 0.00 71 1013.6
20260905133101 27 25 11.3 19.3 0.00 0.00 0.00 58 1024.4
20260905133032 25 292 1.6 6.4 0.00 1.19 1.19 55 1024.3
20260905132857 -17 0.0 0.0 0.00 0.00 0.00 1014.3
20260905132704 30 224 1.6 4.8 0.00 0.18 0.00 70 1013.5
20260905132352 -17 0.0 0.0 0.00 0.00 0.00 1014.5
20260905132026 25 261 4.8 12.9 0.00 1.19 1.19 54 1024.4
20260905131852 -17 0.0 0.0 0.00 0.00 0.00 1014.4
20260905131703 28 273 1.6 8.0 0.00 0.18 0.00 72 1013.5
20260905131554 28 45 12.9 20.9 0.00 0.00 0.00 58 1024.5
20260905131343 -17 0.0 0.0 0.00 0.00 0.00 1014.4
20260905131203 28 174 3.2 4.8 0.00 0.18 0.00 75 1013.3
20260905131020 25 261 3.2 12.9 0.00 1.19 1.19 55 1024.3
20260905130837 -17 0.0 0.0 0.00 0.00 0.00 1014.3
20260905130704 27 228 3.2 4.8 0.00 0.18 0.00 77 1013.5
20260905130336 -17 0.0 0.0 0.00 0.00 0.00 1014.3
20260905130205 27 238 1.6 4.8 0.00 0.18 0.00 78 1013.7
20260905130104 25 261 3.2 9.7 0.00 1.19 1.19 55 1024.4
20260905130052 28 46 12.9 20.9 0.00 0.00 0.00 58 1024.7
20260905125832 -17 0.0 0.0 0.00 0.00 0.00 1014.2
20260905125704 27 223 1.6 4.8 0.00 0.18 0.00 79 1013.6
20260905125326 -17 0.0 0.0 0.00 0.00 0.00 1014.1
20260905125203 27 216 3.2 4.8 0.00 0.18 0.00 78 1013.6
20260905125032 24 222 1.6 6.4 0.00 1.19 1.19 57 1024.5
20260905124822 -17 0.0 0.0 0.00 0.00 0.00 1014.2
20260905124704 27 236 0.0 3.2 0.00 0.18 0.00 78 1013.4
20260905124552 27 20 9.7 17.7 0.00 0.00 0.00 58 1024.8
20260905124319 -17 0.0 0.0 0.00 0.00 0.00 1014.3
20260905124026 24 248 1.6 6.4 0.00 1.19 1.19 58 1024.5
20260905123819 -17 0.0 0.0 0.00 0.00 0.00 1014.2
20260905123704 26 148 1.6 3.2 0.00 0.18 0.00 81 1013.5
20260905123316 -17 0.0 0.0 0.00 0.00 0.00 1014.1
20260905123204 26 92 3.2 8.0 0.00 0.18 0.00 82 1013.4
20260905123104 27 88 9.7 19.3 0.00 0.00 0.00 60 1024.9
20260905123020 25 261 1.6 9.7 0.00 1.19 1.19 56 1024.5
20260905122815 -17 0.0 0.0 0.00 0.00 0.00 1013.9
20260905122703 26 244 0.0 4.8 0.00 0.18 0.00 83 1013.6
20260905122314 -17 0.0 0.0 0.00 0.00 0.00 1014.1
20260905122204 25 150 1.6 3.2 0.00 0.18 0.00 84 1013.6
20260905122044 25 260 3.2 6.4 0.00 1.19 1.19 57 1024.5
20260905121810 -17 0.0 0.0 0.00 0.00 0.00 1013.9
20260905121704 25 189 1.6 3.2 0.00 0.18 0.00 86 1013.7
20260905121555 27 36 9.7 17.7 0.00 0.00 0.00 59 1025.1
20260905121307 -17 0.0 0.0 0.00 0.00 0.00 1014.2
20260905121203 24 196 1.6 4.8 0.00 0.18 0.00 87 1013.5
20260905121052 25 272 1.6 11.3 0.00 1.19 1.19 57 1024.5
20260905120805 -17 0.0 0.0 0.00 0.00 0.00 1014.0
20260905120703 24 216 3.2 4.8 0.00 0.18 0.00 89 1013.6
20260905120300 -17 0.0 0.0 0.00 0.00 0.00 1013.9
20260905120204 23 211 3.2 4.8 0.00 0.18 0.00 90 1013.4
20260905120048 27 255 3.2 8.0 0.00 0.00 0.00 65 1025.1
20260905120026 25 286 1.6 9.7 0.00 1.19 1.19 56 1024.5
20260905115754 -17 0.0 0.0 0.00 0.00 0.00 1013.9
20260905115704 23 244 1.6 3.2 0.00 0.18 0.00 92 1013.6
20260905115249 -17 0.0 0.0 0.00 0.00 0.00 1013.7
20260905115204 23 176 1.6 3.2 0.00 0.18 0.00 93 1013.6
20260905115020 23 270 3.2 12.9 0.00 1.19 1.19 60 1024.5
20260905114748 -17 0.0 0.0 0.00 0.00 0.00 1013.6
20260905114703 22 238 1.6 3.2 0.00 0.18 0.00 93 1013.6
20260905114546 27 234 4.8 14.5 0.00 0.00 0.00 65 1025.4
20260905114248 -17 0.0 0.0 0.00 0.00 0.00 1013.8
20260905114203 22 233 1.6 3.2 0.00 0.18 0.00 93 1013.5
20260905114044 23 1 1.6 6.4 0.00 1.19 1.19 61 1024.7
20260905113747 -17 0.0 0.0 0.00 0.00 0.00 1013.6
20260905113703 22 240 1.6 3.2 0.00 0.18 0.00 94 1013.5
20260905113243 -17 0.0 0.0 0.00 0.00 0.00 1013.6
20260905113204 22 228 1.6 4.8 0.00 0.18 0.00 94 1013.3
20260905113045 27 7 1.6 11.3 0.00 0.00 0.00 62 1025.7
20260905113032 23 244 4.8 11.3 0.00 1.19 1.19 61 1024.7
20260905112738 -17 0.0 0.0 0.00 0.00 0.00 1013.7
20260905112704 22 228 3.2 4.8 0.00 0.18 0.00 94 1013.5
20260905112237 -17 0.0 0.0 0.00 0.00 0.00 1013.7
20260905112204 22 268 3.2 3.2 0.00 0.18 0.00 94 1013.2
20260905112026 23 271 3.2 11.3 0.00 1.19 1.19 61 1024.7
20260905111733 -17 0.0 0.0 0.00 0.00 0.00 1013.5
20260905111703 22 255 3.2 4.8 0.00 0.18 0.00 94 1013.2
20260905111543 26 21 1.6 17.7 0.00 0.00 0.00 64 1025.7
20260905111227 -17 0.0 0.0 0.00 0.00 0.00 1013.5
20260905111204 22 264 1.6 4.8 0.00 0.18 0.00 94 1013.2
20260905111020 23 264 3.2 14.5 0.00 1.19 1.19 63 1024.8
20260905110727 -17 0.0 0.0 0.00 0.00 0.00 1013.5
20260905110704 22 253 3.2 8.0 0.00 0.18 0.00 94 1013.1
20260905110221 -17 0.0 0.0 0.00 0.00 0.00 1013.6
20260905110204 22 244 3.2 8.0 0.00 0.18 0.00 94 1013.1
20260905110044 22 26 3.2 6.4 0.00 1.19 1.19 65 1024.9
20260905110042 26 348 11.3 16.1 0.00 0.00 0.00 65 1025.8
20260905105717 -17 0.0 0.0 0.00 0.00 0.00 1013.6
20260905105704 22 257 1.6 3.2 0.00 0.18 0.00 95 1013.1
20260905105215 -17 0.0 0.0 0.00 0.00 0.00 1013.5
20260905105204 22 278 1.6 3.2 0.00 0.18 0.00 95 1013.0
20260905105032 22 274 1.6 11.3 0.00 1.19 1.19 66 1024.9
20260905104710 -17 0.0 0.0 0.00 0.00 0.00 1013.5
20260905104704 22 259 1.6 3.2 0.00 0.18 0.00 95 1013.0
20260905104545 26 55 8.0 17.7 0.00 0.00 0.00 66 1025.9
20260905104206 -17 0.0 0.0 0.00 0.00 0.00 1013.5
20260905104203 22 273 1.6 4.8 0.00 0.18 0.00 95 1012.9
20260905104026 22 232 3.2 11.3 0.00 1.19 1.19 66 1024.9
20260905103703 22 256 1.6 3.2 0.00 0.18 0.00 94 1013.0
20260905103701 -17 0.0 0.0 0.00 0.00 0.00 1013.8
20260905103203 22 241 1.6 3.2 0.00 0.18 0.00 94 1012.9
20260905103157 -17 0.0 0.0 0.00 0.00 0.00 1013.5
20260905103040 26 26 8.0 12.9 0.00 0.00 0.00 65 1026.0
20260905103020 22 118 3.2 9.7 0.00 1.19 1.19 67 1024.9
20260905102704 22 252 3.2 4.8 0.00 0.18 0.00 94 1012.9
20260905102653 -17 0.0 0.0 0.00 0.00 0.00 1013.7
20260905102203 22 259 3.2 4.8 0.00 0.18 0.00 94 1013.0
20260905102149 -17 0.0 0.0 0.00 0.00 0.00 1013.7
20260905102144 21 272 1.6 6.4 0.00 1.19 1.19 69 1024.9
20260905101704 22 267 3.2 3.2 0.00 0.18 0.00 94 1012.9
20260905101648 -17 0.0 0.0 0.00 0.00 0.00 1013.5
20260905101542 25 21 6.4 17.7 0.00 0.00 0.00 67 1026.1
20260905101204 22 250 1.6 3.2 0.00 0.18 0.00 94 1012.8
20260905101146 -17 0.0 0.0 0.00 0.00 0.00 1013.5
20260905101032 20 247 1.6 3.2 0.00 1.19 1.19 73 1024.8
20260905100703 22 252 1.6 4.8 0.00 0.18 0.00 94 1012.8
20260905100642 -17 0.0 0.0 0.00 0.00 0.00 1013.5
20260905100204 22 247 1.6 3.2 0.00 0.18 0.00 93 1012.9
20260905100137 -17 0.0 0.0 0.00 0.00 0.00 1013.2
20260905100108 25 34 9.7 17.7 0.00 0.00 0.00 69 1026.1
20260905100026 19 257 3.2 6.4 0.00 1.19 1.19 74 1024.9
20260905095704 22 271 1.6 3.2 0.00 0.18 0.00 93 1013.0
20260905095636 -17 0.0 0.0 0.00 0.00 0.00 1013.5
20260905095204 22 262 1.6 4.8 0.00 0.18 0.00 93 1013.1
20260905095131 -17 0.0 0.0 0.00 0.00 0.00 1013.3
20260905095020 18 247 1.6 9.7 0.00 1.19 1.19 76 1025.1
20260905094704 22 272 1.6 3.2 0.00 0.18 0.00 93 1013.1
20260905094627 -17 0.0 0.0 0.00 0.00 0.00 1013.4
20260905094545 25 53 9.7 16.1 0.00 0.00 0.00 69 1026.0
20260905094203 22 282 1.6 3.2 0.00 0.18 0.00 93 1013.1
20260905094120 -17 0.0 0.0 0.00 0.00 0.00 1013.4
20260905094044 18 232 1.6 6.4 0.00 1.19 1.19 77 1025.0
20260905093704 22 286 3.2 8.0 0.00 0.18 0.00 93 1013.0
20260905093614 -17 0.0 0.0 0.00 0.00 0.00 1013.4
20260905093204 22 246 3.2 4.8 0.00 0.18 0.00 93 1013.1
20260905093111 -17 0.0 0.0 0.00 0.00 0.00 1013.4
20260905093033 17 255 1.6 6.4 0.00 1.19 1.19 79 1025.2
20260905093031 25 55 6.4 14.5 0.00 0.00 0.00 75 1025.8
20260905092704 22 249 3.2 4.8 0.00 0.18 0.00 93 1013.1
20260905092605 -17 0.0 0.0 0.00 0.00 0.00 1013.4
20260905092204 22 278 4.8 9.7 0.00 0.18 0.00 93 1013.0
20260905092101 -17 0.0 0.0 0.00 0.00 0.00 1013.3
20260905092026 17 245 1.6 6.4 0.00 1.19 1.19 80 1025.1
20260905091704 22 277 3.2 9.7 0.00 0.18 0.00 93 1013.0
20260905091600 -17 0.0 0.0 0.00 0.00 0.00 1013.2
20260905091527 23 36 8.0 12.9 0.00 0.00 0.00 77 1025.8
20260905091204 22 241 4.8 8.0 0.00 0.18 0.00 93 1013.1
20260905091055 -17 0.0 0.0 0.00 0.00 0.00 1013.3
20260905091020 17 249 1.6 6.4 0.00 1.19 1.19 80 1025.2
20260905090703 22 251 3.2 8.0 0.00 0.18 0.00 93 1013.1
20260905090554 -17 0.0 0.0 0.00 0.00 0.00 1013.4
20260905090204 22 278 3.2 8.0 0.00 0.18 0.00 93 1012.9
20260905090050 -17 0.0 0.0 0.00 0.00 0.00 1013.3
20260905090044 17 236 0.0 3.2 0.00 1.19 1.19 79 1025.3
20260905090024 22 76 8.0 16.1 0.00 0.00 0.00 78 1025.7
20260905085703 22 245 4.8 9.7 0.00 0.18 0.00 93 1013.0
20260905085548 -17 0.0 0.0 0.00 0.00 0.00 1013.3
20260905085044 -17 0.0 0.0 0.00 0.00 0.00 1013.2
20260905085032 17 248 0.0 3.2 0.00 1.19 1.19 76 1025.3
20260905084543 -17 0.0 0.0 0.00 0.00 0.00 1013.2
20260905084523 22 86 4.8 14.5 0.00 0.00 0.00 81 1025.8
20260905084203 22 254 4.8 9.7 0.00 0.18 0.00 92 1013.0
20260905084038 -17 0.0 0.0 0.00 0.00 0.00 1013.2
20260905084026 18 249 1.6 6.4 0.00 1.19 1.19 74 1025.2
20260905083704 22 253 3.2 8.0 0.00 0.18 0.00 92 1012.9
20260905083533 -17 0.0 0.0 0.00 0.00 0.00 1013.3
20260905083204 22 254 4.8 9.7 0.00 0.18 0.00 92 1012.8
20260905083031 -17 0.0 0.0 0.00 0.00 0.00 1013.2
20260905083022 22 38 6.4 9.7 0.00 0.00 0.00 80 1025.7
20260905083020 17 248 0.0 3.2 0.00 1.19 1.19 73 1025.5
20260905082704 22 256 4.8 9.7 0.00 0.18 0.00 92 1012.9
20260905082525 -17 0.0 0.0 0.00 0.00 0.00 1013.2
20260905082203 22 243 6.4 9.7 0.00 0.18 0.00 92 1012.9
20260905082044 17 248 0.0 3.2 0.00 1.19 1.19 74 1024.9
20260905082021 -17 0.0 0.0 0.00 0.00 0.00 1013.1
20260905081704 22 253 4.8 9.7 0.00 0.18 0.00 92 1013.0
20260905081521 22 70 3.2 11.3 0.00 0.00 0.00 79 1025.6
20260905081514 -17 0.0 0.0 0.00 0.00 0.00 1013.0
20260905081204 22 252 4.8 14.5 0.00 0.18 0.00 92 1013.0
20260905081032 17 252 6.4 12.9 0.00 1.19 1.19 75 1025.4
20260905081009 -17 0.0 0.0 0.00 0.00 0.00 1013.0
20260905080503 -17 0.0 0.0 0.00 0.00 0.00 1013.1
20260905080203 22 265 4.8 8.0 0.00 0.18 0.00 92 1012.9
20260905080026 17 241 3.2 9.7 0.00 1.19 1.19 76 1025.4
20260905080021 22 103 6.4 11.3 0.00 0.00 0.00 81 1025.5
20260905080002 -17 0.0 0.0 0.00 0.00 0.00 1013.2
20260905075703 22 310 3.2 4.8 0.00 0.18 0.00 92 1013.0
20260905075457 -17 0.0 0.0 0.00 0.00 0.00 1013.1
20260905075203 22 277 4.8 8.0 0.00 0.18 0.00 92 1012.9
20260905075020 17 263 1.6 6.4 0.00 1.19 1.19 76 1025.3
20260905074955 -17 0.0 0.0 0.00 0.00 0.00 1013.2
20260905074522 21 97 6.4 11.3 0.00 0.00 0.00 85 1025.6
20260905074452 -17 0.0 0.0 0.00 0.00 0.00 1013.2
20260905074203 22 286 3.2 8.0 0.00 0.18 0.00 92 1012.8
20260905074044 17 252 1.6 3.2 0.00 1.19 1.19 77 1025.5
20260905073947 -17 0.0 0.0 0.00 0.00 0.00 1013.1
20260905073704 22 260 3.2 8.0 0.00 0.18 0.00 92 1013.0
20260905073442 -17 0.0 0.0 0.00 0.00 0.00 1013.2
20260905073203 22 262 3.2 12.9 0.00 0.18 0.00 92 1012.7
20260905073053 17 256 0.0 3.2 0.00 1.19 1.19 75 1025.5
20260905073012 21 72 8.0 12.9 0.00 0.00 0.00 88 1025.4
20260905072937 -17 0.0 0.0 0.00 0.00 0.00 1013.1
20260905072704 22 239 8.0 12.9 0.00 0.18 0.00 92 1012.9
20260905072432 -17 0.0 0.0 0.00 0.00 0.00 1013.2
20260905072204 22 245 6.4 12.9 0.00 0.18 0.00 92 1013.0
20260905072048 17 180 0.0 3.2 0.00 1.19 1.19 74 1024.9
20260905071928 -17 0.0 0.0 0.00 0.00 0.00 1013.2
20260905071703 22 262 3.2 9.7 0.00 0.18 0.00 92 1013.0
20260905071509 20 80 3.2 9.7 0.00 0.00 0.00 90 1025.4
20260905071425 -17 0.0 0.0 0.00 0.00 0.00 1013.2
20260905071204 22 252 4.8 8.0 0.00 0.18 0.00 92 1012.8
20260905071038 17 0.0 3.2 0.00 1.19 1.19 73 1024.9
20260905070918 -17 0.0 0.0 0.00 0.00 0.00 1013.2
20260905070415 -17 0.0 0.0 0.00 0.00 0.00 1013.2
20260905070203 22 241 6.4 12.9 0.00 0.18 0.00 91 1012.8
20260905070007 19 78 1.6 9.7 0.00 0.00 0.00 91 1025.4
20260905065914 -17 0.0 0.0 0.00 0.00 0.00 1013.2
20260905065704 22 255 3.2 9.7 0.00 0.18 0.00 91 1012.8
20260905065412 -17 0.0 0.0 0.00 0.00 0.00 1013.0
20260905065204 22 292 6.4 16.1 0.00 0.18 0.00 91 1013.0
20260905064908 -17 0.0 0.0 0.00 0.00 0.00 1013.2
20260905064508 18 27 1.6 4.8 0.00 0.00 0.00 91 1025.1
20260905064403 -17 0.0 0.0 0.00 0.00 0.00 1013.1
20260905064204 22 288 4.8 9.7 0.00 0.18 0.00 91 1013.1
20260905063902 -17 0.0 0.0 0.00 0.00 0.00 1013.2
20260905063704 22 248 8.0 12.9 0.00 0.18 0.00 91 1013.3
20260905063358 -17 0.0 0.0 0.00 0.00 0.00 1013.0
20260905063203 22 264 3.2 9.7 0.00 0.18 0.00 91 1013.4
20260905063005 18 3 0.0 1.6 0.00 0.00 0.00 90 1024.9
20260905062854 -17 0.0 0.0 0.00 0.00 0.00 1013.1
20260905062703 22 251 4.8 9.7 0.00 0.18 0.00 91 1013.3
20260905062354 -17 0.0 0.0 0.00 0.00 0.00 1012.9
20260905062204 22 274 4.8 12.9 0.00 0.18 0.00 92 1013.4
20260905061849 -17 0.0 0.0 0.00 0.00 0.00 1013.2
20260905061503 18 3 0.0 3.2 0.00 0.00 0.00 90 1025.0
20260905061343 -17 0.0 0.0 0.00 0.00 0.00 1013.1
20260905061204 22 283 3.2 9.7 0.00 0.18 0.00 92 1013.2
20260905060837 -17 0.0 0.0 0.00 0.00 0.00 1013.0
20260905060703 22 276 4.8 12.9 0.00 0.18 0.00 93 1013.5
20260905060329 -17 0.0 0.0 0.00 0.00 0.00 1013.3
20260905060203 22 247 4.8 9.7 0.00 0.18 0.00 93 1013.5
20260905060003 18 3 0.0 0.0 0.00 0.00 0.00 90 1024.9
20260905055828 -17 0.0 0.0 0.00 0.00 0.00 1013.0
20260905055704 22 249 3.2 4.8 0.00 0.18 0.00 93 1013.7
20260905055323 -17 0.0 0.0 0.00 0.00 0.00 1013.0
20260905055203 22 273 3.2 4.8 0.00 0.18 0.00 93 1013.5
20260905054822 -17 0.0 0.0 0.00 0.00 0.00 1013.0
20260905054708 18 3 0.0 3.2 0.00 0.00 0.00 89 1024.6
20260905054703 22 248 3.2 4.8 0.00 0.18 0.00 93 1013.7
20260905054319 -17 0.0 0.0 0.00 0.00 0.00 1013.2
20260905054203 22 251 3.2 9.7 0.00 0.18 0.00 93 1013.7
20260905053818 -17 0.0 0.0 0.00 0.00 0.00 1013.1
20260905053704 22 247 3.2 9.7 0.00 0.18 0.00 93 1013.8
20260905053313 -17 0.0 0.0 0.00 0.00 0.00 1013.3
20260905053203 22 251 3.2 11.3 0.00 0.18 0.00 93 1013.8
20260905053058 18 3 0.0 4.8 0.00 0.00 0.00 90 1024.3
20260905052808 -17 0.0 0.0 0.00 0.00 0.00 1013.3
20260905052703 22 262 3.2 8.0 0.00 0.18 0.00 93 1013.7
20260905052307 -17 0.0 0.0 0.00 0.00 0.00 1013.5
20260905052204 22 268 1.6 8.0 0.00 0.18 0.00 93 1013.8
20260905051807 -17 0.0 0.0 0.00 0.00 0.00 1013.4
20260905051704 22 254 4.8 8.0 0.00 0.18 0.00 92 1013.7
20260905051556 19 15 3.2 14.5 0.00 0.00 0.00 90 1024.2
20260905051304 -17 0.0 0.0 0.00 0.00 0.00 1013.5
20260905051204 22 246 4.8 9.7 0.00 0.18 0.00 92 1013.9
20260905050800 -17 0.0 0.0 0.00 0.00 0.00 1013.6
20260905050704 22 254 1.6 3.2 0.00 0.18 0.00 92 1013.9
20260905050256 -17 0.0 0.0 0.00 0.00 0.00 1013.7
20260905050203 22 253 3.2 8.0 0.00 0.18 0.00 92 1013.9
20260905050055 19 9 8.0 14.5 0.00 0.00 0.00 90 1024.1
20260905045751 -17 0.0 0.0 0.00 0.00 0.00 1013.7
20260905045703 22 234 1.6 3.2 0.00 0.18 0.00 92 1014.2
20260905045246 -17 0.0 0.0 0.00 0.00 0.00 1013.7
20260905045204 22 266 1.6 4.8 0.00 0.18 0.00 92 1014.0
20260905044741 -17 0.0 0.0 0.00 0.00 0.00 1013.7
20260905044703 22 244 3.2 3.2 0.00 0.18 0.00 92 1014.2
20260905044606 19 16 3.2 9.7 0.00 0.00 0.00 90 1024.2
20260905044236 -17 0.0 0.0 0.00 0.00 0.00 1013.6
20260905044203 22 217 1.6 8.0 0.00 0.18 0.00 91 1013.9
20260905043735 -17 0.0 0.0 0.00 0.00 0.00 1013.5
20260905043703 22 270 1.6 8.0 0.00 0.18 0.00 91 1014.3
20260905043235 -17 0.0 0.0 0.00 0.00 0.00 1013.7
20260905043101 19 334 4.8 8.0 0.00 0.00 0.00 90 1024.2
20260905042730 -17 0.0 0.0 0.00 0.00 0.00 1013.8
20260905042704 22 245 3.2 4.8 0.00 0.18 0.00 91 1014.2
20260905042229 -17 0.0 0.0 0.00 0.00 0.00 1013.8
20260905042204 22 281 3.2 4.8 0.00 0.18 0.00 91 1014.3
20260905041725 -17 0.0 0.0 0.00 0.00 0.00 1014.0
20260905041704 22 284 4.8 11.3 0.00 0.18 0.00 91 1014.2
20260905041554 19 355 3.2 14.5 0.00 0.00 0.00 90 1024.1
20260905041221 -17 0.0 0.0 0.00 0.00 0.00 1013.9
20260905041203 22 278 3.2 4.8 0.00 0.18 0.00 91 1014.2
20260905040715 -17 0.0 0.0 0.00 0.00 0.00 1013.9
20260905040703 22 257 1.6 3.2 0.00 0.18 0.00 91 1014.0
20260905040214 -17 0.0 0.0 0.00 0.00 0.00 1014.1
20260905040204 22 192 1.6 9.7 0.00 0.18 0.00 90 1013.9
20260905040105 19 356 6.4 14.5 0.00 0.00 0.00 90 1024.1
20260905035709 -17 0.0 0.0 0.00 0.00 0.00 1014.2
20260905035206 -17 0.0 0.0 0.00 0.00 0.00 1014.1
20260905035203 23 252 4.8 8.0 0.00 0.18 0.18 89 1013.8
20260905034704 23 269 4.8 8.0 0.00 0.18 0.18 88 1013.6
20260905034702 -17 0.0 0.0 0.00 0.00 0.00 1014.2
20260905034601 19 355 8.0 16.1 0.00 0.00 0.00 90 1024.0
20260905034203 23 245 4.8 9.7 0.00 0.18 0.18 89 1013.5
20260905034201 -17 0.0 0.0 0.00 0.00 0.00 1014.3
20260905033703 23 282 4.8 8.0 0.00 0.18 0.18 89 1013.8
20260905033700 -17 0.0 0.0 0.00 0.00 0.00 1014.5
20260905033203 23 294 4.8 11.3 0.00 0.18 0.18 89 1013.9
20260905033155 -17 0.0 0.0 0.00 0.00 0.00 1014.5
20260905033051 20 348 8.0 16.1 0.00 0.00 0.00 90 1024.2
20260905032703 23 282 4.8 11.3 0.00 0.18 0.18 89 1013.9
20260905032655 -17 0.0 0.0 0.00 0.00 0.00 1014.5
20260905032150 -17 0.0 0.0 0.00 0.00 0.00 1014.5
20260905031646 -17 0.0 0.0 0.00 0.00 0.00 1014.4
20260905031551 20 346 4.8 9.7 0.00 0.00 0.00 91 1024.1
20260905031141 -17 0.0 0.0 0.00 0.00 0.00 1014.4
20260905030704 23 265 6.4 14.5 0.00 0.18 0.18 90 1014.3
20260905030636 -17 0.0 0.0 0.00 0.00 0.00 1014.2
20260905030203 23 246 8.0 11.3 0.00 0.18 0.18 90 1014.4
20260905030131 -17 0.0 0.0 0.00 0.00 0.00 1014.4
20260905030049 20 359 1.6 6.4 0.00 0.00 0.00 90 1024.1
20260905025704 23 257 4.8 11.3 0.00 0.18 0.18 90 1014.5
20260905025626 -17 0.0 0.0 0.00 0.00 0.00 1014.3
20260905025122 -17 0.0 0.0 0.00 0.00 0.00 1014.6
20260905024703 23 251 6.4 9.7 0.00 0.18 0.18 89 1014.6
20260905024618 -17 0.0 0.0 0.00 0.00 0.00 1014.4
20260905024557 20 303 6.4 12.9 0.00 0.00 0.00 90 1024.1
20260905024204 23 279 4.8 8.0 0.03 0.18 0.18 89 1014.7
20260905024113 -17 0.0 0.0 0.00 0.00 0.00 1014.5
20260905023608 -17 0.0 0.0 0.00 0.00 0.00 1014.7
20260905023203 23 308 3.2 8.0 0.05 0.18 0.18 89 1015.1
20260905023102 -17 0.0 0.0 0.00 0.00 0.00 1014.6
20260905023047 20 305 6.4 14.5 0.00 0.00 0.00 90 1024.0
20260905022704 23 301 3.2 9.7 0.05 0.18 0.18 89 1015.1
20260905022601 -17 0.0 0.0 0.00 0.00 0.00 1014.7
20260905022203 23 271 4.8 9.7 0.08 0.18 0.18 88 1015.1
20260905022057 -17 0.0 0.0 0.00 0.00 0.00 1014.6
20260905021704 23 326 4.8 8.0 0.10 0.18 0.18 87 1014.6
20260905021556 -17 0.0 0.0 0.00 0.00 0.00 1014.5
20260905021546 20 315 6.4 16.1 0.00 0.00 0.00 90 1023.8
20260905021204 24 256 3.2 8.0 0.10 0.18 0.18 86 1014.3
20260905021052 -17 0.0 0.0 0.00 0.00 0.00 1014.3
20260905020703 24 321 3.2 9.7 0.13 0.18 0.18 86 1013.9
20260905020551 -17 0.0 0.0 0.00 0.00 0.00 1014.3
20260905020204 24 351 6.4 9.7 0.15 0.18 0.18 85 1013.2
20260905020052 20 346 11.3 17.7 0.00 0.00 0.00 91 1023.8
20260905020047 -17 0.0 0.0 0.00 0.00 0.00 1014.4
20260905015703 25 252 4.8 12.9 0.18 0.18 0.18 83 1013.1
20260905015544 -17 0.0 0.0 0.00 0.00 0.00 1014.2
20260905015204 24 222 4.8 12.9 0.18 0.18 0.18 84 1012.9
20260905015039 -17 0.0 0.0 0.00 0.00 0.00 1014.4
20260905014543 20 308 6.4 16.1 0.00 0.00 0.00 91 1023.7
20260905014533 -17 0.0 0.0 0.00 0.00 0.00 1014.2
20260905014203 23 111 4.8 27.4 0.15 0.15 0.15 86 1013.5
20260905014024 -17 0.0 0.0 0.00 0.00 0.00 1014.0
20260905013704 23 325 8.0 22.5 0.15 0.15 0.15 88 1014.0
20260905013520 -17 0.0 0.0 0.00 0.00 0.00 1014.1
20260905013204 23 318 4.8 19.3 0.15 0.15 0.15 88 1014.0
20260905013043 20 313 4.8 14.5 0.00 0.00 0.00 91 1023.5
20260905013016 -17 0.0 0.0 0.00 0.00 0.00 1014.1
20260905012703 23 301 9.7 20.9 0.13 0.13 0.13 89 1014.1
20260905012510 -17 0.0 0.0 0.00 0.00 0.00 1014.1
20260905012203 23 303 8.0 19.3 0.10 0.10 0.10 88 1014.1
20260905012007 -17 0.0 0.0 0.00 0.00 0.00 1013.9
20260905011704 23 181 8.0 19.3 0.10 0.10 0.10 87 1014.2
20260905011542 20 324 9.7 17.7 0.00 0.00 0.00 91 1023.4
20260905011503 -17 0.0 0.0 0.00 0.00 0.00 1014.1
20260905011203 24 299 4.8 11.3 0.08 0.08 0.08 85 1014.8
20260905010958 -17 248 0.0 0.0 0.00 1.96 1.96 1014.0
20260905010703 24 295 8.0 20.9 0.05 0.05 0.05 85 1014.9
20260905010458 -17 248 0.0 0.0 0.00 1.96 1.96 1014.0
20260905010042 20 319 9.7 17.7 0.00 0.00 0.00 91 1023.5
20260905005954 -17 246 0.0 0.0 0.00 1.96 1.96 1013.8
20260905005704 26 294 9.7 19.3 0.00 0.00 0.00 80 1015.5
20260905005449 -17 246 0.0 0.0 0.00 1.96 1.96 1013.9
20260905005203 26 293 11.3 22.5 0.00 0.00 0.00 78 1015.9
20260905004944 -17 320 0.0 0.0 0.00 1.96 1.96 1013.9
20260905004703 26 285 11.3 20.9 0.00 0.00 0.00 79 1016.1
20260905004539 20 329 14.5 19.3 0.00 0.00 0.00 91 1023.6
20260905004439 -17 350 0.0 0.0 0.00 1.96 1.96 1013.9
20260905004203 26 289 11.3 25.7 0.00 0.00 0.00 79 1015.9
20260905003934 -17 346 0.0 0.0 0.00 1.96 1.96 1013.8
20260905003704 26 277 12.9 33.8 0.00 0.00 0.00 79 1016.5
20260905003430 -17 351 0.0 0.0 0.00 1.96 1.96 1013.7
20260905003203 26 277 11.3 27.4 0.00 0.00 0.00 79 1016.5
20260905003039 20 302 9.7 19.3 0.00 0.00 0.00 91 1023.6
20260905002925 -17 358 0.0 0.0 0.00 1.96 1.96 1013.7
20260905002704 26 254 12.9 25.7 0.00 0.00 0.00 79 1016.9
20260905002420 -17 357 0.0 0.0 0.00 1.96 1.96 1013.8
20260905002203 26 270 9.7 16.1 0.00 0.00 0.00 81 1017.1
20260905001920 -17 353 0.0 1.6 0.00 1.96 1.96 1013.9
20260905001704 26 279 6.4 12.9 0.00 0.00 0.00 82 1016.8
20260905001536 20 334 11.3 17.7 0.00 0.00 0.00 91 1023.6
20260905001415 -17 8 0.0 0.0 0.00 1.96 1.96 1014.0
20260905001204 26 261 6.4 12.9 0.00 0.00 0.00 83 1016.3
20260905000909 -17 20 0.0 0.0 0.00 1.96 1.96 1013.8
20260905000703 26 267 4.8 9.7 0.00 0.00 0.00 83 1015.8
20260905000405 -17 7 0.0 0.0 0.00 1.96 1.96 1014.1